FW1436 Weather Reports


time (UTC)temp
C
wind
direction
speed
KPH
gust
KPH
rain 1hr
cm
rain 24hr
cm
rain mn
cm
humidity
%
barometer
mb
20260508064557 9 121 0.0 4.8 0.00 0.00 0.00 86 1009.7
20260508063054 9 96 1.6 9.7 0.00 0.00 0.00 86 1009.6
20260508061553 8 153 0.0 4.8 0.00 0.00 0.00 87 1009.8
20260508060051 8 65 3.2 8.0 0.00 0.00 0.00 87 1009.4
20260508054552 8 72 0.0 4.8 0.00 0.00 0.00 87 1009.7
20260508053113 8 61 0.0 0.0 0.00 0.00 0.00 87 1009.8
20260508051549 8 96 1.6 4.8 0.00 0.00 0.00 87 1009.8
20260508050048 8 85 0.0 3.2 0.00 0.00 0.00 87 1009.7
20260508044551 8 94 0.0 3.2 0.00 0.00 0.00 87 1009.5
20260508043047 8 122 0.0 3.2 0.00 0.00 0.00 87 1009.3
20260508041611 8 96 0.0 0.0 0.00 0.00 0.00 88 1009.1
20260508040105 8 96 0.0 0.0 0.00 0.00 0.00 87 1009.1
20260508034548 8 96 0.0 0.0 0.00 0.00 0.00 87 1009.0
20260508033045 8 95 0.0 0.0 0.00 0.00 0.00 88 1009.1
20260508031544 8 95 0.0 0.0 0.00 0.00 0.00 88 1009.1
20260508030044 7 95 0.0 0.0 0.00 0.00 0.00 88 1009.2
20260508024546 8 95 0.0 1.6 0.00 0.00 0.00 88 1009.1
20260508023041 8 48 0.0 1.6 0.00 0.00 0.00 88 1008.9
20260508021542 8 56 0.0 1.6 0.00 0.00 0.00 88 1009.1
20260508020045 8 53 0.0 1.6 0.00 0.00 0.00 88 1009.3
20260508014536 8 79 0.0 0.0 0.00 0.00 0.00 88 1009.8
20260508013034 7 79 0.0 0.0 0.00 0.00 0.00 88 1009.9
20260508011536 8 79 0.0 4.8 0.00 0.00 0.00 87 1009.7
20260508004532 8 119 0.0 8.0 0.00 0.00 0.00 87 1010.1
20260508003033 8 124 0.0 1.6 0.00 0.00 0.00 87 1010.3
20260508001526 8 112 0.0 0.0 0.00 0.00 0.00 86 1010.4
20260508000025 8 89 0.0 1.6 0.00 0.00 0.00 87 1010.3
20260507234522 8 91 0.0 1.6 0.00 0.00 0.00 86 1010.4
20260507233032 8 97 0.0 0.0 0.00 0.00 0.00 85 1010.8
20260507231519 8 63 0.0 0.0 0.00 0.00 0.00 85 1010.9
20260507230018 8 63 0.0 0.0 0.00 0.00 0.00 84 1010.9
20260507224521 8 63 0.0 1.6 0.00 0.00 0.00 85 1010.9
20260507223017 8 63 0.0 0.0 0.00 0.00 0.00 85 1010.9
20260507221520 8 63 0.0 0.0 0.00 0.00 0.00 85 1010.8
20260507220014 8 63 0.0 0.0 0.00 0.00 0.00 84 1010.8
20260507214513 9 63 0.0 1.6 0.00 0.00 0.00 83 1010.6
20260507213016 9 359 0.0 1.6 0.00 0.00 0.00 83 1010.5
20260507211510 9 103 0.0 1.6 0.00 0.00 0.00 86 1010.5
20260507210008 10 103 0.0 0.0 0.00 0.00 0.00 85 1010.3
20260507204505 10 103 0.0 0.0 0.00 0.00 0.00 83 1010.0
20260507203004 10 103 0.0 0.0 0.00 0.00 0.00 81 1009.7
20260507201504 11 102 0.0 0.0 0.00 0.00 0.00 81 1009.4
20260507200059 11 103 0.0 1.6 0.00 0.00 0.00 80 1009.2
20260507200006 11 103 0.0 1.6 0.00 0.00 0.00 79 1009.3
20260507194620 11 103 0.0 3.2 0.00 0.00 0.00 78 1008.8
20260507193058 12 91 0.0 3.2 0.00 0.00 0.00 77 1008.7
20260507191558 12 110 0.0 3.2 0.00 0.00 0.00 77 1008.5
20260507190058 13 91 0.0 1.6 0.00 0.00 0.00 73 1008.3
20260507184557 13 93 0.0 3.2 0.00 0.00 0.00 68 1008.0
20260507183056 14 107 0.0 4.8 0.00 0.00 0.00 67 1008.0
20260507181558 14 59 0.0 6.4 0.00 0.00 0.00 68 1007.9
20260507180055 14 94 0.0 8.0 0.00 0.00 0.00 71 1007.8
20260507174600 14 88 3.2 11.3 0.00 0.00 0.00 71 1007.7
20260507173132 13 124 1.6 8.0 0.00 0.00 0.00 71 1007.8
20260507171604 13 46 1.6 11.3 0.00 0.00 0.00 73 1007.8
20260507170110 12 37 4.8 11.3 0.00 0.00 0.00 80 1007.9
20260507164556 11 73 1.6 6.4 0.00 0.00 0.00 91 1007.9
20260507163050 10 12 0.0 6.4 0.00 0.00 0.00 93 1008.1
20260507161602 10 13 4.8 12.9 0.00 0.00 0.00 94 1007.7
20260507160050 10 51 1.6 8.0 0.00 0.00 0.00 93 1007.8
20260507154649 10 111 0.0 3.2 0.00 0.00 0.00 94 1007.7
20260507153055 10 115 0.0 1.6 0.00 0.00 0.00 94 1007.9
20260507151548 10 235 0.0 8.0 0.00 0.00 0.00 93 1008.2
20260507150052 10 108 0.0 4.8 0.00 0.00 0.00 93 1008.3
20260507144551 10 13 0.0 0.0 0.00 0.00 0.00 93 1008.4
20260507143047 10 74 1.6 8.0 0.00 0.00 0.00 93 1008.0
20260507141557 10 155 3.2 9.7 0.00 0.00 0.00 92 1008.0
20260507140043 10 108 3.2 9.7 0.00 0.00 0.00 91 1008.0
20260507134541 10 231 1.6 11.3 0.00 0.00 0.00 89 1008.1
20260507133036 11 134 8.0 17.7 0.00 0.00 0.00 84 1008.1
20260507131537 13 131 3.2 20.9 0.00 0.00 0.00 72 1007.9
20260507130033 15 172 4.8 16.1 0.00 0.00 0.00 63 1007.5
20260507124532 16 162 3.2 12.9 0.00 0.00 0.00 62 1007.2
20260507123037 16 127 3.2 8.0 0.00 0.00 0.00 63 1007.3
20260507121529 16 66 1.6 8.0 0.00 0.00 0.00 64 1007.2
20260507120040 16 319 3.2 6.4 0.00 0.00 0.00 63 1007.2
20260507114527 16 11 3.2 12.9 0.00 0.00 0.00 64 1007.4
20260507113037 16 56 1.6 9.7 0.00 0.00 0.00 65 1007.8
20260507111521 16 261 0.0 4.8 0.00 0.00 0.00 63 1008.1
20260507110020 16 96 0.0 3.2 0.00 0.00 0.00 65 1008.1
20260507104517 15 158 3.2 12.9 0.00 0.00 0.00 66 1008.3
20260507103012 15 108 1.6 11.3 0.00 0.00 0.00 68 1008.6
20260507101512 14 48 3.2 9.7 0.00 0.00 0.00 67 1008.9
20260507100015 14 52 1.6 11.3 0.00 0.00 0.00 69 1009.0
20260507094509 13 108 4.8 12.9 0.00 0.00 0.00 69 1009.0
20260507093009 13 145 1.6 11.3 0.00 0.00 0.00 69 1009.0
20260507091501 13 96 1.6 12.9 0.00 0.00 0.00 71 1009.0
20260507090058 13 75 4.8 11.3 0.00 0.00 0.00 72 1009.0
20260507084602 13 59 3.2 14.5 0.00 0.00 0.00 72 1008.8
20260507083052 12 58 3.2 11.3 0.00 0.00 0.00 73 1008.8
20260507081551 12 63 1.6 11.3 0.00 0.00 0.00 74 1008.8
20260507080049 12 70 3.2 9.7 0.00 0.00 0.00 74 1008.9
20260507074551 12 37 1.6 8.0 0.00 0.00 0.00 75 1008.9
20260507073107 12 97 3.2 8.0 0.00 0.00 0.00 75 1008.8
20260507071543 11 98 3.2 8.0 0.00 0.00 0.00 75 1008.9
20260507070043 11 97 1.6 6.4 0.00 0.00 0.00 75 1009.0